This demonstration page uses our WeatherBlox Daily Observations layout. Learn more.

Left ArrowRight Arrow

Hourly Observations for November 22, 2019

Temp ( °F °C ) Dew Point ( °F °C ) Humidity (%) Winds ( mph kmh ) Pressure ( in mb ) Visibility ( mi km ) Precip ( " mm )
12:53 am 00:53 Clear 49 9.4 44 6.7 83 83 NW 3 6 30.13 1020 10 16 0.00 0.00
1:53 am 01:53 Clear 50 10 45 7.2 83 83 Calm 30.13 1020 10 16 0.00 0.00
2:53 am 02:53 Mostly Clear 49 9.4 45 7.2 86 86 Calm 30.12 1020 10 16 0.00 0.00
3:53 am 03:53 Partly Cloudy 47 8.3 44 6.7 90 90 Calm 30.11 1020 10 16 0.00 0.00
4:53 am 04:53 Clear 46 7.8 43 6.1 89 89 Calm 30.10 1019 9 14 0.00 0.00
5:53 am 05:53 Mostly Cloudy 46 7.8 44 6.7 93 93 Calm 30.11 1020 10 16 0.00 0.00
6:53 am 06:53 Mostly Cloudy 47 8.3 44 6.7 90 90 Calm 30.12 1020 10 16 0.00 0.00
7:53 am 07:53 Sunny 49 9.4 46 7.8 90 90 W 5 7 30.12 1020 9 14 0.00 0.00
8:53 am 08:53 Mostly Cloudy with Light Rain 50 10 45 7.2 83 83 SSW 3 6 30.12 1020 10 16 0.00 0.00
9:53 am 09:53 Partly Cloudy 54 12.2 46 7.8 75 75 SW 3 6 30.12 1020 10 16 0.00 0.00
10:53 am 10:53 Partly Cloudy 58 14.4 46 7.8 65 65 WSW 5 7 30.10 1019 10 16 0.00 0.00
11:53 am 11:53 Sunny 64 17.8 48 8.9 56 56 SW 7 11 30.08 1019 10 16 0.00 0.00
12:53 pm 12:53 Partly Cloudy 64 17.8 49 9.4 58 58 SW 10 17 30.04 1017 10 16 0.00 0.00
1:53 pm 13:53 Cloudy 64 17.8 51 10.6 63 63 SSW 6 9 30.03 1017 10 16 0.00 0.00
2:53 pm 14:53 Cloudy 65 18.3 52 11.1 63 63 SW 5 7 30.01 1016 10 16 0.00 0.00
3:53 pm 15:53 Cloudy 64 17.8 53 11.7 68 68 Calm 30.01 1016 10 16 0.00 0.00
4:53 pm 16:53 Mostly Cloudy with Light Rain 64 17.8 56 13.3 75 75 SSW 3 6 29.99 1016 10 16 0.00 0.00
5:53 pm 17:53 Cloudy 63 17.2 56 13.3 78 78 Calm 30.00 1016 10 16 0.00 0.00
6:53 pm 18:53 Cloudy with Light Rain 62 16.7 57 13.9 84 84 SSW 3 6 30.01 1016 10 16 0.00 0.00
7:53 pm 19:53 Cloudy 61 16.1 57 13.9 87 87 SW 5 7 30.01 1016 10 16 0.01 0.25
8:53 pm 20:53 Cloudy with Light Rain 60 15.6 58 14.4 93 93 Calm 30.00 1016 10 16 0.00 0.00
9:53 pm 21:53 Cloudy 60 15.6 57 13.9 90 90 Calm 30.01 1016 9 14 0.00 0.00
10:22 pm 22:22 Cloudy 60 15.6 57 13.9 90 90 Calm 30.00 1016 10 16 0.00 0.00

Powered by AerisWeather